,,Stat6,,Stat2,,Stat8,,Stat9,,Stat10,,Wind1,,Wind1,
time,status,PA1M_AVG,status,PR1M_SUM,status,RH1M_AVG,status,SR1M_AVG,status,TA1M_AVG,status,W1dAve1m,status,W1sAve1m,
2008-07-17, 00:00:00,VALID,915.288,VALID,0,VALID,100,VALID,-0.101885,VALID,20.0268,VALID,17,VALID,0,
2008-07-17, 00:01:00,VALID,915.289,VALID,0,VALID,100,VALID,-0.152827,VALID,20.0495,VALID,33,VALID,0,
2008-07-17, 00:02:00,VALID,915.307,VALID,0,VALID,100,VALID,-0.186789,VALID,20.0465,VALID,355,VALID,0,
2008-07-17, 00:03:00,VALID,915.292,VALID,0,VALID,100,VALID,-0.152827,VALID,20.0073,VALID,16,VALID,0,
2008-07-17, 00:04:00,VALID,915.307,VALID,0,VALID,100,VALID,-0.152827,VALID,19.9911,VALID,37,VALID,0,
2008-07-17, 00:05:00,VALID,915.294,VALID,0,VALID,100,VALID,-0.135847,VALID,19.9846,VALID,37,VALID,0,
2008-07-17, 00:06:00,VALID,915.308,VALID,0,VALID,100,VALID,-0.152827,VALID,19.9881,VALID,36,VALID,0,
2008-07-17, 00:07:00,VALID,915.304,VALID,0,VALID,100,VALID,-0.169808,VALID,20.0141,VALID,32,VALID,0,
2008-07-17, 00:08:00,VALID,915.319,VALID,0,VALID,100,VALID,-0.152827,VALID,20.0268,VALID,32,VALID,0,
2008-07-17, 00:09:00,VALID,915.332,VALID,0,VALID,100,VALID,-0.152827,VALID,20.0201,VALID,32,VALID,0,
2008-07-17, 00:10:00,VALID,915.328,VALID,0,VALID,100,VALID,-0.152827,VALID,20.0428,VALID,32,VALID,0,
2008-07-17, 00:11:00,VALID,915.325,VALID,0,VALID,100,VALID,-0.101885,VALID,20.0388,VALID,61,VALID,0,
2008-07-17, 00:12:00,VALID,915.329,VALID,0,VALID,100,VALID,-0.0509425,VALID,20.0188,VALID,64,VALID,0,
2008-07-17, 00:13:00,VALID,915.333,VALID,0,VALID,100,VALID,-0.0339617,VALID,20.0385,VALID,64,VALID,0,
2008-07-17, 00:14:00,VALID,915.322,VALID,0,VALID,100,VALID,-0.0509425,VALID,20.0645,VALID,64,VALID,0,
2008-07-17, 00:15:00,VALID,915.308,VALID,0,VALID,100,VALID,-0.0169808,VALID,20.087,VALID,64,VALID,0,
2008-07-17, 00:16:00,VALID,915.309,VALID,0,VALID,100,VALID,-0.0169808,VALID,20.1062,VALID,64,VALID,0,
2008-07-17, 00:17:00,VALID,915.314,VALID,0,VALID,100,VALID,-0.0509425,VALID,20.1129,VALID,64,VALID,0,
2008-07-17, 00:18:00,VALID,915.303,VALID,0,VALID,100,VALID,-0.0679233,VALID,20.1097,VALID,64,VALID,0,
2008-07-17, 00:19:00,VALID,915.316,VALID,0,VALID,100,VALID,-0.0509425,VALID,20.1227,VALID,64,VALID,0,
2008-07-17, 00:20:00,VALID,915.31,VALID,0,VALID,100,VALID,-0.0339617,VALID,20.1291,VALID,64,VALID,0,
2008-07-17, 00:21:00,VALID,915.317,VALID,0,VALID,100,VALID,-0.0169808,VALID,20.1227,VALID,64,VALID,0,
2008-07-17, 00:22:00,VALID,915.31,VALID,0,VALID,100,VALID,-0.0509425,VALID,20.1326,VALID,64,VALID,0,
2008-07-17, 00:23:00,VALID,915.306,VALID,0,VALID,100,VALID,-0.0339617,VALID,20.1356,VALID,64,VALID,0,
2008-07-17, 00:24:00,VALID,915.282,VALID,0,VALID,100,VALID,-0.0169808,VALID,20.1421,VALID,64,VALID,0,
2008-07-17, 00:25:00,VALID,915.252,VALID,0,VALID,100,VALID,-0.0169808,VALID,20.1416,VALID,64,VALID,0,
2008-07-17, 00:26:00,VALID,915.241,VALID,0,VALID,100,VALID,-0.0339617,VALID,20.1466,VALID,64,VALID,0,
2008-07-17, 00:27:00,VALID,915.223,VALID,0,VALID,100,VALID,-0.0679233,VALID,20.1237,VALID,64,VALID,0,
2008-07-17, 00:28:00,VALID,915.208,VALID,0,VALID,100,VALID,-0.0679233,VALID,20.1144,VALID,64,VALID,0,
2008-07-17, 00:29:00,VALID,915.201,VALID,0,VALID,100,VALID,-0.0849042,VALID,20.1047,VALID,64,VALID,0,
2008-07-17, 00:30:00,VALID,915.192,VALID,0,VALID,100,VALID,-0.0339617,VALID,20.098,VALID,64,VALID,0,
2008-07-17, 00:31:00,VALID,915.184,VALID,0,VALID,100,VALID,-0.101885,VALID,20.085,VALID,64,VALID,0,
2008-07-17, 00:32:00,VALID,915.195,VALID,0,VALID,100,VALID,-0.0679233,VALID,20.092,VALID,64,VALID,0,
2008-07-17, 00:33:00,VALID,915.169,VALID,0,VALID,100,VALID,-0.0509425,VALID,20.0917,VALID,64,VALID,0,
2008-07-17, 00:34:00,VALID,915.16,VALID,0,VALID,100,VALID,-0.0849042,VALID,20.0952,VALID,64,VALID,0,
2008-07-17, 00:35:00,VALID,915.16,VALID,0,VALID,100,VALID,-0.118866,VALID,20.0917,VALID,64,VALID,0,
2008-07-17, 00:36:00,VALID,915.149,VALID,0,VALID,100,VALID,-0.101885,VALID,20.0882,VALID,64,VALID,0,
2008-07-17, 00:37:00,VALID,915.15,VALID,0,VALID,100,VALID,-0.0849042,VALID,20.095,VALID,64,VALID,0,
2008-07-17, 00:38:00,VALID,915.147,VALID,0,VALID,100,VALID,-0.101885,VALID,20.0787,VALID,64,VALID,0,
2008-07-17, 00:39:00,VALID,915.145,VALID,0,VALID,100,VALID,-0.0849042,VALID,20.069,VALID,64,VALID,0,
2008-07-17, 00:40:00,VALID,915.134,VALID,0,VALID,100,VALID,-0.0849042,VALID,20.0758,VALID,64,VALID,0,
2008-07-17, 00:41:00,VALID,915.138,VALID,0,VALID,100,VALID,-0.0849042,VALID,20.079,VALID,64,VALID,0,
2008-07-17, 00:42:00,VALID,915.14,VALID,0,VALID,100,VALID,-0.101885,VALID,20.0525,VALID,64,VALID,0,
2008-07-17, 00:43:00,VALID,915.131,VALID,0,VALID,100,VALID,-0.118866,VALID,20.0233,VALID,64,VALID,0,
2008-07-17, 00:44:00,VALID,915.13,VALID,0,VALID,100,VALID,-0.0849042,VALID,20.0398,VALID,64,VALID,0,
2008-07-17, 00:45:00,VALID,915.124,VALID,0,VALID,100,VALID,-0.101885,VALID,20.0528,VALID,64,VALID,0,
2008-07-17, 00:46:00,VALID,915.129,VALID,0,VALID,100,VALID,-0.101885,VALID,20.0655,VALID,64,VALID,0,
2008-07-17, 00:47:00,VALID,915.13,VALID,0,VALID,100,VALID,-0.0849042,VALID,20.0852,VALID,64,VALID,0,
2008-07-17, 00:48:00,VALID,915.123,VALID,0,VALID,100,VALID,-0.0849042,VALID,20.0852,VALID,64,VALID,0,
2008-07-17, 00:49:00,VALID,915.124,VALID,0,VALID,100,VALID,-0.0509425,VALID,20.0787,VALID,64,VALID,0,
2008-07-17, 00:50:00,VALID,915.129,VALID,0,VALID,100,VALID,-0.0849042,VALID,20.069,VALID,64,VALID,0,
2008-07-17, 00:51:00,VALID,915.134,VALID,0,VALID,100,VALID,-0.0679233,VALID,20.056,VALID,355,VALID,0,
2008-07-17, 00:52:00,VALID,915.128,VALID,0,VALID,100,VALID,-0.0849042,VALID,20.0201,VALID,318,VALID,0,
2008-07-17, 00:53:00,VALID,915.115,VALID,0,VALID,100,VALID,-0.101885,VALID,19.9849,VALID,276,VALID,0,
2008-07-17, 00:54:00,VALID,915.111,VALID,0,VALID,100,VALID,-0.0509425,VALID,19.9654,VALID,268,VALID,0,
2008-07-17, 00:55:00,VALID,915.107,VALID,0,VALID,100,VALID,-0.101885,VALID,19.9716,VALID,268,VALID,0,
2008-07-17, 00:56:00,VALID,915.085,VALID,0,VALID,100,VALID,-0.0849042,VALID,19.9979,VALID,261,VALID,0,
2008-07-17, 00:57:00,VALID,915.065,VALID,0,VALID,100,VALID,-0.135847,VALID,19.9949,VALID,248,VALID,0,
2008-07-17, 00:58:00,VALID,915.058,VALID,0,VALID,100,VALID,-0.101885,VALID,19.9914,VALID,248,VALID,0,
2008-07-17, 00:59:00,VALID,915.032,VALID,0,VALID,100,VALID,-0.0849042,VALID,19.9719,VALID,248,VALID,0,
2008-07-17, 01:00:00,VALID,915.025,VALID,0,VALID,100,VALID,-0.135847,VALID,19.9684,VALID,249,VALID,0,
2008-07-17, 01:01:00,VALID,915.014,VALID,0,VALID,100,VALID,-0.135847,VALID,19.9749,VALID,249,VALID,0,
2008-07-17, 01:02:00,VALID,915.007,VALID,0,VALID,100,VALID,-0.0509425,VALID,19.9684,VALID,249,VALID,0,
2008-07-17, 01:03:00,VALID,914.978,VALID,0,VALID,100,VALID,-0.0849042,VALID,19.9487,VALID,249,VALID,0,
2008-07-17, 01:04:00,VALID,914.962,VALID,0,VALID,100,VALID,-0.0849042,VALID,19.9424,VALID,249,VALID,0,
2008-07-17, 01:05:00,VALID,914.947,VALID,0,VALID,100,VALID,-0.0679233,VALID,19.9419,VALID,249,VALID,0,
2008-07-17, 01:06:00,VALID,914.924,VALID,0,VALID,100,VALID,-0.0849042,VALID,19.9419,VALID,249,VALID,0,
2008-07-17, 01:07:00,VALID,914.905,VALID,0,VALID,100,VALID,-0.0679233,VALID,19.9519,VALID,249,VALID,0,
2008-07-17, 01:08:00,VALID,914.881,VALID,0,VALID,100,VALID,-0.0679233,VALID,19.9554,VALID,249,VALID,0,
2008-07-17, 01:09:00,VALID,914.853,VALID,0,VALID,100,VALID,-0.0509425,VALID,19.9354,VALID,249,VALID,0,
2008-07-17, 01:10:00,VALID,914.812,VALID,0,VALID,100,VALID,-0.101885,VALID,19.9392,VALID,249,VALID,0,
2008-07-17, 01:11:00,VALID,914.776,VALID,0,VALID,100,VALID,-0.0849042,VALID,19.9422,VALID,249,VALID,0,
2008-07-17, 01:12:00,VALID,914.734,VALID,0,VALID,100,VALID,-0.0679233,VALID,19.9484,VALID,249,VALID,0,
2008-07-17, 01:13:00,VALID,914.719,VALID,0,VALID,100,VALID,-0.0849042,VALID,19.9519,VALID,249,VALID,0,
2008-07-17, 01:14:00,VALID,914.697,VALID,0,VALID,100,VALID,-0.0509425,VALID,19.9519,VALID,249,VALID,0,
2008-07-17, 01:15:00,VALID,914.683,VALID,0,VALID,100,VALID,-0.0339617,VALID,19.9482,VALID,249,VALID,0,
2008-07-17, 01:16:00,VALID,914.66,VALID,0,VALID,100,VALID,-0.0679233,VALID,19.9549,VALID,249,VALID,0,
2008-07-17, 01:17:00,VALID,914.649,VALID,0,VALID,100,VALID,-0.0849042,VALID,19.9519,VALID,249,VALID,0,
2008-07-17, 01:18:00,VALID,914.634,VALID,0,VALID,100,VALID,-0.0339617,VALID,19.9557,VALID,249,VALID,0,
2008-07-17, 01:19:00,VALID,914.613,VALID,0,VALID,100,VALID,-0.0849042,VALID,19.9487,VALID,249,VALID,0,
2008-07-17, 01:20:00,VALID,914.602,VALID,0,VALID,100,VALID,-0.0509425,VALID,19.9487,VALID,249,VALID,0,
2008-07-17, 01:21:00,VALID,914.576,VALID,0,VALID,100,VALID,-0.0679233,VALID,19.9489,VALID,249,VALID,0,
2008-07-17, 01:22:00,VALID,914.579,VALID,0,VALID,100,VALID,-0.0679233,VALID,19.9552,VALID,248,VALID,0,
2008-07-17, 01:23:00,VALID,914.567,VALID,0,VALID,100,VALID,-0.101885,VALID,19.9484,VALID,249,VALID,0,
2008-07-17, 01:24:00,VALID,914.567,VALID,0,VALID,100,VALID,-0.0679233,VALID,19.9457,VALID,248,VALID,0,
2008-07-17, 01:25:00,VALID,914.548,VALID,0,VALID,100,VALID,-0.0679233,VALID,19.9255,VALID,249,VALID,0,
2008-07-17, 01:26:00,VALID,914.54,VALID,0,VALID,100,VALID,-0.135847,VALID,19.9272,VALID,249,VALID,0,
2008-07-17, 01:27:00,VALID,914.532,VALID,0,VALID,100,VALID,-0.152827,VALID,19.914,VALID,238,VALID,0,
2008-07-17, 01:28:00,VALID,914.523,VALID,0,VALID,100,VALID,-0.135847,VALID,19.914,VALID,227,VALID,0,
2008-07-17, 01:29:00,VALID,914.509,VALID,0,VALID,100,VALID,-0.135847,VALID,19.907,VALID,228,VALID,0,
2008-07-17, 01:30:00,VALID,914.492,VALID,0,VALID,100,VALID,-0.152827,VALID,19.904,VALID,225,VALID,0,
2008-07-17, 01:31:00,VALID,914.489,VALID,0,VALID,100,VALID,-0.135847,VALID,19.8905,VALID,228,VALID,0,
2008-07-17, 01:32:00,VALID,914.495,VALID,0,VALID,100,VALID,-0.186789,VALID,19.8783,VALID,229,VALID,0.0310595,
2008-07-17, 01:33:00,VALID,914.478,VALID,0,VALID,100,VALID,-0.169808,VALID,19.8553,VALID,193,VALID,0.00234375,
2008-07-17, 01:34:00,VALID,914.483,VALID,0,VALID,100,VALID,-0.135847,VALID,19.8523,VALID,193,VALID,0,
2008-07-17, 01:35:00,VALID,914.483,VALID,0,VALID,100,VALID,-0.135847,VALID,19.8391,VALID,191,VALID,0,
2008-07-17, 01:36:00,VALID,914.498,VALID,0,VALID,100,VALID,-0.118866,VALID,19.8329,VALID,187,VALID,0,
2008-07-17, 01:37:00,VALID,914.484,VALID,0,VALID,100,VALID,-0.118866,VALID,19.8196,VALID,187,VALID,0,
2008-07-17, 01:38:00,VALID,914.494,VALID,0,VALID,100,VALID,-0.152827,VALID,19.7867,VALID,187,VALID,0,
2008-07-17, 01:39:00,VALID,914.479,VALID,0,VALID,100,VALID,-0.152827,VALID,19.7904,VALID,187,VALID,0,
2008-07-17, 01:40:00,VALID,914.462,VALID,0,VALID,100,VALID,-0.152827,VALID,19.7804,VALID,187,VALID,0,
2008-07-17, 01:41:00,VALID,914.452,VALID,0,VALID,100,VALID,-0.152827,VALID,19.7834,VALID,188,VALID,0,
2008-07-17, 01:42:00,VALID,914.43,VALID,0,VALID,100,VALID,-0.169808,VALID,19.8004,VALID,243,VALID,0,
2008-07-17, 01:43:00,VALID,914.425,VALID,0,VALID,100,VALID,-0.135847,VALID,19.7974,VALID,244,VALID,0,
2008-07-17, 01:44:00,VALID,914.427,VALID,0,VALID,100,VALID,-0.135847,VALID,19.7709,VALID,244,VALID,0,
2008-07-17, 01:45:00,VALID,914.414,VALID,0,VALID,100,VALID,-0.118866,VALID,19.7777,VALID,244,VALID,0,
2008-07-17, 01:46:00,VALID,914.417,VALID,0,VALID,100,VALID,-0.152827,VALID,19.7812,VALID,249,VALID,0,
2008-07-17, 01:47:00,VALID,914.396,VALID,0,VALID,100,VALID,-0.152827,VALID,19.755,VALID,262,VALID,0,
2008-07-17, 01:48:00,VALID,914.411,VALID,0,VALID,100,VALID,-0.135847,VALID,19.7315,VALID,270,VALID,0,
2008-07-17, 01:49:00,VALID,914.399,VALID,0,VALID,100,VALID,-0.152827,VALID,19.7387,VALID,217,VALID,0,
2008-07-17, 01:50:00,VALID,914.407,VALID,0,VALID,100,VALID,-0.152827,VALID,19.7352,VALID,214,VALID,0,
2008-07-17, 01:51:00,VALID,914.417,VALID,0,VALID,100,VALID,-0.152827,VALID,19.725,VALID,218,VALID,0,
2008-07-17, 01:52:00,VALID,914.399,VALID,0,VALID,100,VALID,-0.169808,VALID,19.7188,VALID,213,VALID,0,
2008-07-17, 01:53:00,VALID,914.391,VALID,0,VALID,100,VALID,-0.152827,VALID,19.7382,VALID,218,VALID,0,
2008-07-17, 01:54:00,VALID,914.393,VALID,0,VALID,100,VALID,-0.169808,VALID,19.7447,VALID,220,VALID,0,
2008-07-17, 01:55:00,VALID,914.4,VALID,0,VALID,100,VALID,-0.152827,VALID,19.7517,VALID,220,VALID,0,
2008-07-17, 01:56:00,VALID,914.402,VALID,0,VALID,100,VALID,-0.135847,VALID,19.7645,VALID,217,VALID,0,
2008-07-17, 01:57:00,VALID,914.406,VALID,0,VALID,100,VALID,-0.152827,VALID,19.7972,VALID,217,VALID,0,
2008-07-17, 01:58:00,VALID,914.426,VALID,0,VALID,100,VALID,-0.135847,VALID,19.8166,VALID,217,VALID,0,
2008-07-17, 01:59:00,VALID,914.452,VALID,0,VALID,100,VALID,-0.152827,VALID,19.8423,VALID,217,VALID,0,
2008-07-17, 02:00:00,VALID,914.471,VALID,0,VALID,100,VALID,-0.135847,VALID,19.8421,VALID,217,VALID,0,
2008-07-17, 02:01:00,VALID,914.475,VALID,0,VALID,100,VALID,-0.135847,VALID,19.8224,VALID,217,VALID,0,
2008-07-17, 02:02:00,VALID,914.489,VALID,0,VALID,100,VALID,-0.135847,VALID,19.8169,VALID,217,VALID,0,
2008-07-17, 02:03:00,VALID,914.48,VALID,0,VALID,100,VALID,-0.135847,VALID,19.7994,VALID,217,VALID,0,
2008-07-17, 02:04:00,VALID,914.467,VALID,0,VALID,100,VALID,-0.152827,VALID,19.8231,VALID,217,VALID,0,
2008-07-17, 02:05:00,VALID,914.45,VALID,0,VALID,100,VALID,-0.152827,VALID,19.8458,VALID,217,VALID,0,
2008-07-17, 02:06:00,VALID,914.457,VALID,0,VALID,100,VALID,-0.135847,VALID,19.8491,VALID,217,VALID,0,
2008-07-17, 02:07:00,VALID,914.452,VALID,0,VALID,100,VALID,-0.101885,VALID,19.8486,VALID,217,VALID,0,
2008-07-17, 02:08:00,VALID,914.438,VALID,0,VALID,100,VALID,-0.152827,VALID,19.8553,VALID,217,VALID,0,
2008-07-17, 02:09:00,VALID,914.44,VALID,0,VALID,100,VALID,-0.135847,VALID,19.8453,VALID,217,VALID,0,
2008-07-17, 02:10:00,VALID,914.415,VALID,0,VALID,100,VALID,-0.135847,VALID,19.8428,VALID,217,VALID,0,
2008-07-17, 02:11:00,VALID,914.414,VALID,0,VALID,100,VALID,-0.152827,VALID,19.8136,VALID,217,VALID,0,
2008-07-17, 02:12:00,VALID,914.409,VALID,0,VALID,100,VALID,-0.152827,VALID,19.8034,VALID,213,VALID,0,
2008-07-17, 02:13:00,VALID,914.405,VALID,0,VALID,100,VALID,-0.169808,VALID,19.8069,VALID,195,VALID,0,
2008-07-17, 02:14:00,VALID,914.401,VALID,0,VALID,100,VALID,-0.152827,VALID,19.7937,VALID,193,VALID,0.00799006,
2008-07-17, 02:15:00,VALID,914.403,VALID,0,VALID,100,VALID,-0.169808,VALID,19.7839,VALID,176,VALID,0.0178052,
2008-07-17, 02:16:00,VALID,914.393,VALID,0,VALID,100,VALID,-0.135847,VALID,19.7839,VALID,165,VALID,0,
2008-07-17, 02:17:00,VALID,914.396,VALID,0,VALID,100,VALID,-0.101885,VALID,19.7739,VALID,165,VALID,0,
2008-07-17, 02:18:00,VALID,914.41,VALID,0,VALID,100,VALID,-0.118866,VALID,19.758,VALID,165,VALID,0,
2008-07-17, 02:19:00,VALID,914.396,VALID,0,VALID,100,VALID,-0.186789,VALID,19.7515,VALID,87,VALID,0,
2008-07-17, 02:20:00,VALID,914.398,VALID,0,VALID,100,VALID,-0.135847,VALID,19.764,VALID,64,VALID,0.290968,
2008-07-17, 02:21:00,VALID,914.4,VALID,0,VALID,100,VALID,-0.135847,VALID,19.7447,VALID,64,VALID,0,
2008-07-17, 02:22:00,VALID,914.39,VALID,0,VALID,100,VALID,-0.118866,VALID,19.725,VALID,68,VALID,0,
2008-07-17, 02:23:00,VALID,914.4,VALID,0,VALID,100,VALID,-0.135847,VALID,19.7128,VALID,78,VALID,0,
2008-07-17, 02:24:00,VALID,914.395,VALID,0,VALID,100,VALID,-0.135847,VALID,19.6866,VALID,82,VALID,0,
2008-07-17, 02:25:00,VALID,914.383,VALID,0,VALID,100,VALID,-0.118866,VALID,19.6636,VALID,88,VALID,0,
2008-07-17, 02:26:00,VALID,914.376,VALID,0,VALID,100,VALID,-0.0849042,VALID,19.6499,VALID,92,VALID,0,
2008-07-17, 02:27:00,VALID,914.362,VALID,0,VALID,100,VALID,-0.0849042,VALID,19.6334,VALID,111,VALID,0.053234,
2008-07-17, 02:28:00,VALID,914.358,VALID,0,VALID,100,VALID,-0.0679233,VALID,19.6172,VALID,107,VALID,0.636265,
2008-07-17, 02:29:00,VALID,914.347,VALID,0,VALID,100,VALID,0,VALID,19.6169,VALID,112,VALID,0.228766,
2008-07-17, 02:30:00,VALID,914.325,VALID,0,VALID,100,VALID,-0.0169808,VALID,19.6072,VALID,122,VALID,0.0310724,
2008-07-17, 02:31:00,VALID,914.313,VALID,0,VALID,100,VALID,-0.0339617,VALID,19.6007,VALID,122,VALID,0,
2008-07-17, 02:32:00,VALID,914.302,VALID,0,VALID,100,VALID,-0.0509425,VALID,19.604,VALID,122,VALID,0,
2008-07-17, 02:33:00,VALID,914.294,VALID,0,VALID,100,VALID,-0.0509425,VALID,19.6074,VALID,122,VALID,0,
2008-07-17, 02:34:00,VALID,914.286,VALID,0,VALID,100,VALID,-0.0509425,VALID,19.6032,VALID,122,VALID,0,
2008-07-17, 02:35:00,VALID,914.284,VALID,0,VALID,100,VALID,-0.0849042,VALID,19.6239,VALID,122,VALID,0,
2008-07-17, 02:36:00,VALID,914.28,VALID,0,VALID,100,VALID,-0.0169808,VALID,19.6069,VALID,122,VALID,0,
2008-07-17, 02:37:00,VALID,914.274,VALID,0,VALID,100,VALID,-0.0169808,VALID,19.6069,VALID,122,VALID,0,
2008-07-17, 02:38:00,VALID,914.278,VALID,0,VALID,100,VALID,-0.0339617,VALID,19.6169,VALID,122,VALID,0,
2008-07-17, 02:39:00,VALID,914.279,VALID,0,VALID,100,VALID,-0.0169808,VALID,19.6164,VALID,122,VALID,0,
2008-07-17, 02:40:00,VALID,914.287,VALID,0,VALID,100,VALID,-0.0339617,VALID,19.6072,VALID,124,VALID,0,
2008-07-17, 02:41:00,VALID,914.284,VALID,0,VALID,100,VALID,-0.152827,VALID,19.6052,VALID,125,VALID,0,
2008-07-17, 02:42:00,VALID,914.302,VALID,0,VALID,100,VALID,-0.169808,VALID,19.5987,VALID,99,VALID,0.135069,
2008-07-17, 02:43:00,VALID,914.292,VALID,0,VALID,100,VALID,-0.118866,VALID,19.5994,VALID,83,VALID,0,
2008-07-17, 02:44:00,VALID,914.289,VALID,0,VALID,100,VALID,-0.152827,VALID,19.5992,VALID,95,VALID,0,
2008-07-17, 02:45:00,VALID,914.296,VALID,0,VALID,100,VALID,-0.135847,VALID,19.5925,VALID,80,VALID,0,
2008-07-17, 02:46:00,VALID,914.281,VALID,0,VALID,100,VALID,-0.118866,VALID,19.6017,VALID,70,VALID,0,
2008-07-17, 02:47:00,VALID,914.272,VALID,0,VALID,100,VALID,-0.135847,VALID,19.592,VALID,83,VALID,0,
2008-07-17, 02:48:00,VALID,914.264,VALID,0,VALID,100,VALID,-0.169808,VALID,19.589,VALID,96,VALID,0.00111607,
2008-07-17, 02:49:00,VALID,914.264,VALID,0,VALID,100,VALID,-0.186789,VALID,19.593,VALID,97,VALID,0.0807884,
2008-07-17, 02:50:00,VALID,914.24,VALID,0,VALID,100,VALID,-0.118866,VALID,19.5925,VALID,113,VALID,0,
2008-07-17, 02:51:00,VALID,914.236,VALID,0,VALID,100,VALID,-0.135847,VALID,19.5827,VALID,118,VALID,0,
2008-07-17, 02:52:00,VALID,914.233,VALID,0,VALID,100,VALID,-0.169808,VALID,19.586,VALID,126,VALID,0,
2008-07-17, 02:53:00,VALID,914.22,VALID,0,VALID,100,VALID,-0.186789,VALID,19.5825,VALID,128,VALID,0,
2008-07-17, 02:54:00,VALID,914.219,VALID,0,VALID,100,VALID,-0.101885,VALID,19.5922,VALID,147,VALID,0.0725991,
2008-07-17, 02:55:00,VALID,914.217,VALID,0,VALID,100,VALID,-0.186789,VALID,19.589,VALID,149,VALID,0.0355114,
2008-07-17, 02:56:00,VALID,914.201,VALID,0,VALID,100,VALID,-0.0339617,VALID,19.5875,VALID,172,VALID,0.0399709,
2008-07-17, 02:57:00,VALID,914.184,VALID,0,VALID,100,VALID,-0.0169808,VALID,19.597,VALID,136,VALID,0,
2008-07-17, 02:58:00,VALID,914.184,VALID,0,VALID,100,VALID,-0.0509425,VALID,19.5907,VALID,127,VALID,0,
2008-07-17, 02:59:00,VALID,914.164,VALID,0,VALID,100,VALID,0,VALID,19.5872,VALID,95,VALID,0,
2008-07-17, 03:00:00,VALID,914.168,VALID,0,VALID,100,VALID,-0.0509425,VALID,19.604,VALID,99,VALID,0,
2008-07-17, 03:01:00,VALID,914.161,VALID,0,VALID,100,VALID,-0.101885,VALID,19.601,VALID,119,VALID,0.052484,
2008-07-17, 03:02:00,VALID,914.144,VALID,0,VALID,100,VALID,-0.0849042,VALID,19.5877,VALID,121,VALID,0.045277,
2008-07-17, 03:03:00,VALID,914.13,VALID,0,VALID,100,VALID,-0.0509425,VALID,19.5743,VALID,139,VALID,0.119141,
2008-07-17, 03:04:00,VALID,914.118,VALID,0,VALID,100,VALID,-0.0849042,VALID,19.5812,VALID,136,VALID,0.318714,
2008-07-17, 03:05:00,VALID,914.104,VALID,0,VALID,100,VALID,-0.0509425,VALID,19.5845,VALID,132,VALID,0.0293445,
2008-07-17, 03:06:00,VALID,914.086,VALID,0,VALID,100,VALID,-0.0849042,VALID,19.588,VALID,113,VALID,0.147204,
2008-07-17, 03:07:00,VALID,914.085,VALID,0,VALID,100,VALID,-0.0679233,VALID,19.5713,VALID,113,VALID,0.0234375,
2008-07-17, 03:08:00,VALID,914.089,VALID,0,VALID,100,VALID,-0.0509425,VALID,19.571,VALID,107,VALID,0,
2008-07-17, 03:09:00,VALID,914.067,VALID,0,VALID,100,VALID,-0.0509425,VALID,19.5578,VALID,120,VALID,0,
2008-07-17, 03:10:00,VALID,914.048,VALID,0,VALID,100,VALID,-0.0339617,VALID,19.5548,VALID,114,VALID,0,
2008-07-17, 03:11:00,VALID,914.034,VALID,0,VALID,100,VALID,-0.135847,VALID,19.5628,VALID,143,VALID,0.850446,
2008-07-17, 03:12:00,VALID,914.028,VALID,0,VALID,100,VALID,-0.152827,VALID,19.563,VALID,126,VALID,0.770389,
2008-07-17, 03:13:00,VALID,914.005,VALID,0,VALID,100,VALID,-0.152827,VALID,19.5695,VALID,124,VALID,1.27251,
2008-07-17, 03:14:00,VALID,914.011,VALID,0,VALID,100,VALID,-0.118866,VALID,19.553,VALID,119,VALID,0.413352,
2008-07-17, 03:15:00,VALID,914.014,VALID,0,VALID,100,VALID,-0.118866,VALID,19.54,VALID,122,VALID,0.497396,
2008-07-17, 03:16:00,VALID,914.019,VALID,0,VALID,100,VALID,-0.135847,VALID,19.5503,VALID,114,VALID,0.0946801,
2008-07-17, 03:17:00,VALID,913.994,VALID,0,VALID,100,VALID,-0.135847,VALID,19.5433,VALID,118,VALID,0,
2008-07-17, 03:18:00,VALID,913.996,VALID,0,VALID,100,VALID,-0.152827,VALID,19.5403,VALID,111,VALID,0.846112,
2008-07-17, 03:19:00,VALID,913.98,VALID,0,VALID,100,VALID,-0.152827,VALID,19.534,VALID,110,VALID,1.08249,
2008-07-17, 03:20:00,VALID,913.978,VALID,0,VALID,100,VALID,-0.152827,VALID,19.5271,VALID,106,VALID,0.801847,
2008-07-17, 03:21:00,VALID,913.963,VALID,0,VALID,100,VALID,-0.135847,VALID,19.5403,VALID,102,VALID,0.0625,
2008-07-17, 03:22:00,VALID,913.977,VALID,0,VALID,100,VALID,-0.152827,VALID,19.5241,VALID,118,VALID,0.00272529,
2008-07-17, 03:23:00,VALID,913.948,VALID,0,VALID,100,VALID,-0.152827,VALID,19.5271,VALID,115,VALID,0,
2008-07-17, 03:24:00,VALID,913.935,VALID,0,VALID,100,VALID,-0.152827,VALID,19.5338,VALID,122,VALID,0.0012718,
2008-07-17, 03:25:00,VALID,913.93,VALID,0,VALID,100,VALID,-0.101885,VALID,19.5338,VALID,135,VALID,0,
2008-07-17, 03:26:00,VALID,913.907,VALID,0,VALID,100,VALID,-0.152827,VALID,19.5366,VALID,143,VALID,0.00130208,
2008-07-17, 03:27:00,VALID,913.884,VALID,0,VALID,100,VALID,-0.101885,VALID,19.5463,VALID,150,VALID,0.734184,
2008-07-17, 03:28:00,VALID,913.871,VALID,0,VALID,100,VALID,-0.135847,VALID,19.5498,VALID,166,VALID,0.866642,
2008-07-17, 03:29:00,VALID,913.862,VALID,0,VALID,100,VALID,-0.135847,VALID,19.5533,VALID,167,VALID,1.01326,
2008-07-17, 03:30:00,VALID,913.852,VALID,0,VALID,100,VALID,-0.118866,VALID,19.553,VALID,187,VALID,0.566692,
2008-07-17, 03:31:00,VALID,913.833,VALID,0,VALID,100,VALID,-0.135847,VALID,19.5625,VALID,182,VALID,0.196057,
2008-07-17, 03:32:00,VALID,913.824,VALID,0,VALID,100,VALID,-0.135847,VALID,19.5692,VALID,182,VALID,0.0743096,
2008-07-17, 03:33:00,VALID,913.818,VALID,0,VALID,100,VALID,-0.135847,VALID,19.5757,VALID,194,VALID,0,
2008-07-17, 03:34:00,VALID,913.788,VALID,0,VALID,100,VALID,-0.152827,VALID,19.579,VALID,194,VALID,0,
2008-07-17, 03:35:00,VALID,913.819,VALID,0,VALID,100,VALID,-0.101885,VALID,19.5822,VALID,194,VALID,0,
2008-07-17, 03:36:00,VALID,913.826,VALID,0,VALID,100,VALID,-0.135847,VALID,19.5855,VALID,193,VALID,0.274771,
2008-07-17, 03:37:00,VALID,913.828,VALID,0,VALID,100,VALID,-0.101885,VALID,19.5887,VALID,179,VALID,0.955487,
2008-07-17, 03:38:00,VALID,913.815,VALID,0,VALID,100,VALID,-0.135847,VALID,19.5857,VALID,137,VALID,0.687686,
2008-07-17, 03:39:00,VALID,913.792,VALID,0,VALID,100,VALID,-0.169808,VALID,19.5855,VALID,155,VALID,0.521802,
2008-07-17, 03:40:00,VALID,913.787,VALID,0,VALID,100,VALID,-0.135847,VALID,19.5693,VALID,145,VALID,0.709375,
2008-07-17, 03:41:00,VALID,913.782,VALID,0,VALID,100,VALID,-0.152827,VALID,19.5825,VALID,154,VALID,0.214844,
2008-07-17, 03:42:00,VALID,913.798,VALID,0,VALID,100,VALID,-0.169808,VALID,19.5825,VALID,141,VALID,0.0263445,
2008-07-17, 03:43:00,VALID,913.811,VALID,0,VALID,100,VALID,-0.152827,VALID,19.5658,VALID,154,VALID,0.783156,
2008-07-17, 03:44:00,VALID,913.825,VALID,0,VALID,100,VALID,-0.169808,VALID,19.5595,VALID,152,VALID,1.02938,
2008-07-17, 03:45:00,VALID,913.845,VALID,0,VALID,100,VALID,-0.135847,VALID,19.5595,VALID,156,VALID,1.00036,
2008-07-17, 03:46:00,VALID,913.845,VALID,0,VALID,100,VALID,-0.186789,VALID,19.56,VALID,153,VALID,0.0221037,
2008-07-17, 03:47:00,VALID,913.845,VALID,0,VALID,100,VALID,-0.152827,VALID,19.563,VALID,163,VALID,0,